Location: Clarion
(42.7316°N, 93.7330°W)
Time: 08:58:10
(UTC+00:00)

Cosmos 2298 Rocket - Pass Details

Date: 22 April 2026
Orbit: 772 x 782 km, 74.0° (Epoch: 17 May)

Event Time Altitude Azimuth Distance (km) Brightness Sun altitude
Rises 02:14:56 0° 176° (S) 3,239 6.9 -12.7°
Reaches altitude 10° 02:17:26 10° 169° (S) 2,318 6.1 -13.1°
Maximum altitude 02:22:16 38° 102° (ESE) 1,166 4.5 -13.9°
Drops below altitude 10° 02:27:10 10° 35° (NE) 2,339 6.5 -14.6°
Sets 02:29:41 0° 28° (NNE) 3,273 7.3 -15.0°
